Vorticity
-1 8 7 15 10 9 0 2 3 -0 5 0 9 -0 16 12 6 10 13 4 3 1 2 -8 1 10 16 14 16 13 9 9 5 12 15 9 13 4 19 14 6 8 3 2
-5 4 11 3 -3 -6 -16 4 10 13 9 13 -3 10 1 30 9 -1 2 4 5 -1 -6 2 10 6 -0 -2 -4 9 11 11 6 6 3 13 8 3 -9 18 10 7 16 8
0 -27 6 9 7 19 18 8 5 8 2 5 10 16 41 6 11 -1 5 4 -1 -1 3 7 5 5 12 17 15 16 17 12 12 7 5 1 10 15 3 2 1 12 3 12
12 27 10 16 12 11 9 20 6 -1 4 8 -23 7 -9 3 1 5 1 -3 4 -1 5 13 16 14 14 13 9 15 14 20 25 15 10 7 5 2 11 7 -13 13 12 9
-2 15 6 7 10 25 6 6 0 -2 6 7 13 12 17 18 11 -5 8 12 8 -1 7 13 11 12 13 18 17 16 9 11 12 20 33 17 5 6 -0 11 13 0 6 1
5 6 8 4 6 1 -20 3 15 14 8 41 21 4 73 -1 9 3 8 -3 -7 6 7 6 7 3 9 9 18 14 14 15 14 11 20 24 30 14 6 0 5 11 9 -7
8 8 4 13 13 15 21 8 14 45 12 0 25 19 7 14 -10 -17 -30 8 5 -2 0 12 14 15 5 -3 6 7 13 20 23 11 18 27 32 34 24 12 3 7 2 -8
-1 15 14 19 6 -11 23 9 -16 16 9 -7 7 8 23 8 6 9 11 1 -3 2 5 7 6 8 8 8 5 7 9 18 16 28 15 12 22 20 33 38 24 11 9 -1
36 13 27 6 7 2 36 1 18 23 19 17 1 4 12 8 3 12 16 -1 -6 5 5 11 10 5 6 8 10 9 8 8 15 7 13 15 21 25 15 16 38 23 18 12
25 1 4 9 1 12 -16 -9 8 16 10 13 10 6 41 -3 0 5 7 3 1 6 3 16 18 7 5 6 11 9 9 6 12 18 12 18 27 14 19 -6 17 10 50 22
-7 6 22 -1 3 13 3 19 -1 6 -6 1 14 14 2 9 4 0 -9 2 -8 1 6 8 9 7 5 11 10 10 8 -3 11 18 14 17 26 30 25 15 15 20 20 20
1 22 13 -1 -4 21 11 19 17 -9 11 24 -9 9 23 -2 -1 -2 14 -14 6 5 14 11 15 9 11 12 9 13 11 10 7 15 19 25 28 20 38 8 45 24 -7 5
18 16 17 30 -9 15 10 13 7 24 1 5 15 -18 5 7 22 7 8 11 8 8 18 9 6 9 11 14 12 14 9 13 5 13 20 22 20 21 22 12 7 37 17 -8
-1 4 1 -6 -15 3 24 13 10 -1 3 -0 8 -6 19 25 6 0 10 14 -9 14 10 13 17 16 18 14 14 13 13 15 -6 17 21 21 22 26 17 15 17 37 11 42
-5 3 7 10 8 5 10 12 9 8 0 -3 3 2 12 -3 13 1 -9 3 21 18 21 19 15 15 14 15 15 17 16 17 -1 12 24 12 25 25 30 28 22 15 21 3
1 -6 21 14 16 10 6 9 8 9 5 3 6 16 17 10 -0 1 12 19 18 18 11 11 11 12 11 12 11 14 18 15 18 8 4 29 6 13 15 15 17 24 48 -4
19 7 9 20 12 17 17 11 9 10 14 18 9 5 4 -7 5 13 22 11 10 6 6 5 8 8 8 8 10 9 10 15 15 11 16 6 22 15 9 11 15 14 9 21
15 4 3 -6 19 15 16 20 9 26 16 8 18 18 -0 13 14 4 9 7 5 5 6 5 5 6 8 9 8 7 8 9 11 15 14 14 13 3 15 12 6 -2 -0 6
7 11 10 2 19 -30 5 14 19 8 6 31 15 -6 9 5 9 -2 7 5 1 3 6 5 6 8 8 9 10 10 8 7 8 8 9 14 14 14 13 10 7 10 5 19
8 13 -1 24 -0 17 73 17 0 9 16 30 7 24 -5 16 12 22 -9 6 5 5 6 6 8 8 9 10 10 10 10 9 8 8 7 6 8 11 14 14 15 16 17 12
6 7 3 7 3 17 20 12 5 15 3 7 16 -9 16 13 5 5 10 8 7 6 5 7 9 9 10 10 10 10 9 9 8 8 8 8 6 6 7 7 10 12 12 12
6 -12 18 22 13 24 14 2 11 2 -1 2 9 14 14 10 8 9 9 5 6 6 8 10 10 8 9 10 12 12 12 12 10 9 7 7 7 8 8 7 8 8 8 10
21 -19 -3 16 27 11 7 -3 3 9 2 11 15 12 11 9 9 9 7 6 6 7 9 8 7 8 10 11 11 10 11 13 16 16 12 9 8 7 7 7 9 8 8 9
14 22 -13 1 21 3 9 3 -1 7 9 14 14 11 10 8 7 6 6 6 8 9 9 9 9 9 10 11 11 11 11 12 13 15 19 18 13 9 9 10 10 10 10 10
20 24 11 16 -11 4 3 7 12 9 12 13 10 9 9 8 7 7 7 8 9 10 11 10 10 10 11 11 11 11 11 12 12 15 15 16 17 15 13 11 10 10 11 13
-3 4 13 9 21 21 1 13 10 8 11 12 10 11 11 10 8 8 7 9 10 11 10 10 11 13 13 12 11 11 11 9 8 9 12 13 13 11 11 12 10 10 10 11
Height
3109 3110 3109 3112 3108 3109 3111 3113 3111 3114 3115 3112 3111 3109 3110 3112 3108 3108 3106 3105 3104 3101 3094 3089 3082 3086 3088 3084 3085 3085 3086 3085 3084 3083 3082 3079 3076 3078 3083 3086 3091 3093 3095 3096
3110 3106 3108 3107 3106 3108 3109 3110 3109 3110 3111 3108 3108 3104 3104 3104 3102 3102 3104 3102 3094 3090 3089 3086 3083 3081 3080 3079 3079 3078 3077 3076 3075 3075 3076 3075 3076 3074 3074 3077 3080 3084 3085 3084
3106 3106 3102 3105 3106 3106 3108 3107 3106 3107 3107 3103 3102 3097 3094 3096 3098 3100 3100 3092 3086 3088 3088 3084 3080 3075 3074 3069 3068 3068 3068 3066 3065 3064 3064 3065 3066 3067 3068 3070 3070 3072 3076 3077
3104 3105 3100 3102 3102 3104 3106 3103 3102 3101 3104 3100 3099 3094 3093 3089 3093 3096 3089 3085 3083 3086 3085 3080 3076 3072 3069 3063 3061 3058 3056 3055 3053 3053 3052 3051 3053 3053 3055 3057 3058 3063 3064 3066
3101 3100 3099 3100 3101 3099 3102 3098 3099 3098 3100 3097 3094 3093 3082 3086 3088 3083 3081 3080 3081 3081 3079 3075 3071 3067 3064 3058 3054 3051 3047 3045 3044 3041 3039 3039 3039 3041 3041 3044 3046 3047 3050 3053
3095 3093 3095 3096 3095 3097 3095 3095 3096 3094 3098 3091 3082 3085 3077 3083 3085 3080 3075 3075 3077 3078 3075 3070 3066 3064 3060 3054 3051 3046 3039 3036 3032 3029 3028 3026 3025 3026 3027 3030 3033 3037 3038 3040
3091 3089 3089 3089 3093 3094 3093 3094 3093 3086 3088 3079 3078 3079 3076 3075 3076 3075 3073 3073 3075 3071 3068 3066 3063 3060 3056 3050 3044 3040 3036 3030 3024 3019 3015 3013 3012 3011 3011 3014 3017 3021 3026 3027
3085 3086 3085 3085 3087 3090 3091 3093 3093 3083 3076 3079 3078 3076 3077 3073 3073 3071 3072 3071 3072 3070 3065 3061 3056 3052 3048 3044 3039 3033 3027 3022 3017 3011 3006 3002 2999 2998 2998 2999 3002 3006 3011 3014
3079 3079 3079 3082 3085 3086 3089 3090 3088 3086 3084 3083 3076 3076 3076 3073 3072 3071 3068 3068 3067 3066 3061 3056 3051 3046 3041 3037 3031 3026 3019 3013 3006 3002 2996 2991 2988 2987 2987 2987 2990 2990 2995 3000
3077 3078 3076 3077 3080 3081 3082 3083 3086 3085 3084 3076 3069 3070 3073 3075 3074 3072 3068 3065 3061 3058 3055 3052 3047 3042 3037 3031 3026 3020 3013 3006 2998 2991 2985 2981 2978 2977 2978 2976 2979 2980 2981 2988
3075 3076 3077 3077 3076 3079 3079 3078 3081 3082 3079 3074 3069 3070 3072 3071 3070 3067 3064 3061 3058 3055 3050 3046 3042 3037 3032 3025 3019 3014 3006 3000 2994 2985 2978 2974 2970 2967 2967 2968 2969 2971 2974 2979
3072 3072 3074 3073 3075 3074 3075 3075 3076 3077 3075 3072 3072 3071 3069 3068 3066 3064 3063 3059 3055 3051 3047 3041 3036 3030 3025 3020 3014 3008 3001 2995 2988 2980 2973 2968 2963 2959 2958 2959 2961 2963 2960 2964
3067 3069 3070 3071 3073 3071 3069 3071 3073 3073 3073 3073 3074 3069 3065 3065 3064 3061 3057 3054 3049 3046 3041 3035 3029 3024 3019 3014 3008 3003 2995 2991 2984 2976 2969 2962 2957 2954 2953 2951 2952 2954 2956 2949
3062 3063 3066 3066 3066 3067 3065 3066 3068 3069 3071 3070 3069 3067 3064 3061 3060 3055 3052 3049 3044 3041 3035 3029 3024 3019 3014 3009 3003 2998 2992 2987 2980 2972 2966 2959 2953 2949 2947 2945 2946 2947 2947 2937
3057 3058 3062 3062 3063 3064 3063 3062 3063 3065 3066 3065 3067 3064 3062 3059 3057 3053 3048 3045 3041 3036 3031 3025 3020 3016 3011 3006 3001 2995 2989 2983 2977 2970 2964 2958 2952 2947 2944 2941 2941 2942 2942 2938
3054 3054 3058 3057 3060 3059 3059 3059 3059 3060 3062 3061 3061 3061 3056 3055 3051 3048 3045 3041 3037 3032 3028 3023 3019 3014 3009 3004 2999 2993 2988 2981 2974 2969 2963 2957 2953 2947 2944 2940 2941 2941 2941 2942
3050 3052 3056 3054 3054 3056 3055 3054 3055 3055 3057 3056 3056 3057 3053 3050 3048 3043 3042 3038 3034 3030 3026 3022 3017 3013 3008 3002 2997 2992 2986 2980 2974 2967 2962 2956 2952 2949 2945 2944 2943 2941 2941 2942
3046 3050 3053 3052 3052 3052 3049 3048 3048 3049 3051 3052 3053 3053 3049 3047 3044 3040 3038 3036 3032 3028 3024 3020 3015 3011 3006 3001 2996 2991 2985 2979 2974 2968 2963 2957 2952 2948 2944 2942 2942 2943 2943 2943
3044 3048 3049 3050 3048 3046 3044 3043 3045 3045 3048 3049 3049 3047 3045 3043 3040 3037 3036 3033 3030 3026 3022 3017 3012 3007 3003 2998 2993 2988 2983 2978 2974 2968 2963 2958 2953 2949 2946 2943 2942 2942 2941 2942
3041 3044 3048 3047 3045 3041 3039 3040 3040 3041 3044 3044 3042 3042 3041 3038 3037 3034 3032 3030 3028 3023 3019 3014 3009 3004 2998 2993 2990 2986 2981 2976 2972 2967 2962 2958 2954 2951 2948 2945 2943 2940 2939 2938
3036 3039 3041 3042 3041 3040 3037 3037 3039 3042 3044 3039 3039 3037 3036 3035 3035 3033 3030 3027 3024 3020 3015 3010 3005 3000 2995 2990 2984 2980 2976 2972 2968 2964 2960 2956 2952 2950 2947 2944 2941 2939 2937 2935
3031 3035 3037 3039 3039 3037 3034 3034 3038 3036 3035 3035 3034 3033 3032 3031 3030 3028 3026 3023 3019 3015 3011 3007 3002 2997 2991 2986 2981 2975 2971 2967 2963 2959 2955 2952 2948 2945 2943 2941 2938 2936 2935 2933
3028 3029 3032 3033 3033 3032 3032 3031 3031 3032 3031 3031 3030 3029 3028 3027 3025 3024 3021 3019 3015 3011 3007 3002 2997 2992 2987 2982 2976 2972 2967 2963 2959 2954 2951 2947 2944 2941 2938 2935 2932 2931 2928 2927
3023 3024 3026 3028 3028 3027 3029 3028 3029 3029 3028 3027 3026 3025 3024 3023 3022 3020 3018 3014 3011 3006 3002 2998 2994 2989 2984 2978 2973 2968 2964 2959 2954 2949 2946 2942 2939 2935 2932 2929 2926 2924 2921 2919
3018 3020 3022 3023 3025 3025 3024 3025 3026 3026 3025 3024 3023 3022 3021 3020 3018 3016 3014 3010 3007 3002 2998 2994 2989 2984 2979 2974 2969 2964 2960 2955 2951 2946 2942 2938 2934 2931 2928 2925 2922 2919 2916 2914
3016 3017 3018 3020 3020 3021 3022 3022 3022 3022 3022 3021 3020 3018 3017 3016 3015 3012 3010 3007 3002 2998 2994 2990 2985 2980 2975 2970 2965 2960 2955 2950 2945 2941 2937 2933 2929 2926 2922 2920 2917 2913 2910 2907